Weather History for Abbotsford, BC

Change the Weather History Date:

Wednesday, February 6, 2013

  Actual Average Record
Temperature  
Mean Temperature 44 °F -  
Max Temperature 48 °F 48 °F 57 °F (2012)
Min Temperature 40 °F 33 °F 19 °F (2014)
Degree Days  
Heating Degree Days 21    
Moisture  
Dew Point 39 °F    
Average Humidity 86    
Maximum Humidity 100    
Minimum Humidity 62    
Precipitation  
Precipitation 0.16 in 0.21 in - ()
Sea Level Pressure  
Sea Level Pressure 29.94 in    
Wind  
Wind Speed 9 mph ()    
Max Wind Speed 18 mph    
Max Gust Speed 24 mph    
Visibility 12.4 miles    
Events Rain    
Averages and records for this station are not official NWS values.
T = Trace of Precipitation, MM = Missing Value Source: Averaged Metar Reports

Daily Weather History Graph

Daily Weather History Graph

Search for Another Location

Airport:

Trip Planner

Search our weather history database for the weather conditions in past years. The results will help you decide how hot, cold, wet, or windy it might be!

Date:

Astronomy

Feb. 06, 2013 Rise Set
Actual Time 7:32 AM PST 5:15 PM PST
Civil Twilight 6:58 AM PST 5:49 PM PST
Nautical Twilight 6:21 AM PST 6:26 PM PST
Astronomical Twilight 5:44 AM PST 7:03 PM PST
Moon 4:31 AM PST (2/6) 1:29 PM PST (2/6)
Length of Visible Light 10h 50m
Length of Day
9h 43m
Waning Crescent, 16% of the Moon is Illuminated
Feb 6
Waning Crescent
Feb 9
New
Feb 17
First Quarter
Feb 25
Full
Mar 4
Last Quarter

Hourly Weather History & Observations

Time (PST) Temp. Windchill Dew Point Humidity Pressure Visibility Wind Dir Wind Speed Gust Speed Precip Events Conditions
12:00 AM 42.8 °F 37.5 °F 41.0 °F 93% 29.90 in 8.0 mi SW 9.2 mph - N/A   Overcast
1:00 AM 42.8 °F 37.5 °F 41.0 °F 93% 29.91 in 8.0 mi South 9.2 mph - N/A Rain Light Rain Showers
2:00 AM 42.8 °F 35.8 °F 41.0 °F 93% 29.92 in 15.0 mi South 13.8 mph - N/A   Overcast
3:00 AM 42.8 °F 35.8 °F 41.0 °F 93% 29.94 in 7.0 mi South 13.8 mph - N/A Rain Light Rain Showers
4:00 AM 42 °F - 41 °F 93% 29.95 in 10 mi SW 8.1 mph - - Rain Light Rain Showers
4:00 AM 42.8 °F 38.6 °F 41.0 °F 93% 29.95 in 10.0 mi SW 6.9 mph - N/A Rain Light Rain Showers
5:00 AM 42.8 °F 41.1 °F 41.0 °F 93% 29.97 in 10.0 mi SSW 3.5 mph - N/A Rain Light Rain Showers
6:00 AM 41.0 °F 37.1 °F 39.2 °F 93% 29.98 in 10.0 mi SW 5.8 mph - N/A Rain Light Rain Showers
7:00 AM 42.8 °F 37.5 °F 39.2 °F 87% 29.98 in 20.0 mi SSW 9.2 mph - N/A Rain Light Rain Showers
7:31 AM 42.8 °F 38.6 °F 39.2 °F 87% 29.99 in 15.0 mi South 6.9 mph - N/A   Mostly Cloudy
8:00 AM 41.0 °F 36.4 °F 39.2 °F 93% 30.00 in 15.0 mi South 6.9 mph - N/A   Mostly Cloudy
9:00 AM 42.8 °F 37.0 °F 39.2 °F 87% 30.01 in 20.0 mi SSW 10.4 mph - N/A   Mostly Cloudy
10:00 AM 46 °F - 40 °F 72% 30.01 in 19 mi SSW 15.0 mph - -   Partly Cloudy
10:00 AM 46.4 °F 39.2 °F 39.2 °F 76% 30.01 in 20.0 mi South 18.4 mph 24.2 mph N/A   Overcast
11:00 AM 46.4 °F 40.7 °F 39.2 °F 76% 30.01 in 25.0 mi South 12.7 mph 19.6 mph N/A   Overcast
12:00 PM 48.2 °F - 37.4 °F 66% 30.00 in 25.0 mi South 8.1 mph - N/A   Overcast
1:00 PM 48.2 °F - 37.4 °F 66% 29.97 in 30.0 mi South 12.7 mph - N/A   Overcast
2:00 PM 48.2 °F - 35.6 °F 62% 29.96 in 25.0 mi SSE 11.5 mph 19.6 mph N/A   Overcast
2:34 PM 48.2 °F - 35.6 °F 62% 29.95 in 15.0 mi SSE 13.8 mph - N/A Rain Light Rain
3:00 PM 46.4 °F 40.4 °F 37.4 °F 71% 29.96 in 12.0 mi South 13.8 mph 20.7 mph N/A Rain Light Rain
4:00 PM 44 °F - 39 °F 77% 29.96 in 15 mi ESE 9.2 mph - - Rain Light Rain
4:00 PM 44.6 °F 39.7 °F 39.2 °F 81% 29.95 in 15.0 mi East 9.2 mph - N/A Rain Light Rain
5:00 PM 42.8 °F 39.3 °F 41.0 °F 93% 29.94 in 10.0 mi NE 5.8 mph - N/A Rain Light Rain
6:00 PM 41.0 °F 35.8 °F 41.0 °F 100% 29.93 in 10.0 mi NNE 8.1 mph - N/A Rain Light Rain
7:00 PM 42.8 °F 39.3 °F 41.0 °F 93% 29.91 in 10.0 mi NE 5.8 mph - N/A Rain Light Rain
8:00 PM 41.0 °F 38.0 °F 41.0 °F 100% 29.89 in 10.0 mi ENE 4.6 mph - N/A Rain Light Rain
9:00 PM 41.0 °F 36.4 °F 39.2 °F 93% 29.87 in 10.0 mi NE 6.9 mph - N/A Rain Light Rain
9:36 PM 41.0 °F 36.4 °F 39.2 °F 93% 29.86 in 10.0 mi NE 6.9 mph - N/A   Overcast
10:00 PM 41 °F - 40 °F 93% 29.84 in 10 mi NE 8.1 mph - - Rain Light Rain
10:00 PM 41.0 °F 35.8 °F 39.2 °F 93% 29.84 in 10.0 mi NE 8.1 mph - N/A   Overcast
11:00 PM 41.0 °F 37.1 °F 39.2 °F 93% 29.82 in 10.0 mi North 5.8 mph - N/A   Overcast